Location: Gälforsberget
(66.6500°N, 22.4167°E)
Time: 22:07:08
(UTC+00:00)

Cosmos 2322 Rocket - Pass Details

Date: 11 April 2026
Orbit: 832 x 849 km, 71.0° (Epoch: 11 May)

Event Time Altitude Azimuth Distance (km) Brightness Sun altitude
Rises 18:49:19 0° 209° (SSW) 3,376 5.3 -4.9°
Reaches altitude 10° 18:51:47 10° 205° (SSW) 2,444 4.5 -5.1°
Maximum altitude 18:57:14 56° 129° (SE) 991 2.3 -5.6°
Drops below altitude 10° 19:02:44 10° 52° (NE) 2,457 4.5 -6.0°
Sets 19:05:12 0° 49° (NE) 3,396 5.2 -6.2°
